Wind_Speed
20 17 16 17 18 20 20 13 7 3 3 7 12 13 11 12 17 18 20 22 22 26 19 13 7 9 13 16 18 13 13 17 23 23 20 14 6 7 4 11 11 12 14 3 10
21 18 18 19 21 21 14 10 6 3 2 4 12 9 2 8 4 25 24 27 27 21 15 13 10 6 11 14 14 15 14 23 21 22 17 20 17 14 11 15 13 15 16 9 5
21 20 18 20 22 15 12 11 8 5 5 1 10 12 5 9 7 18 32 31 30 18 15 15 14 12 15 16 16 19 21 22 24 21 17 18 20 20 18 18 19 18 13 14 11
22 22 18 21 19 13 11 11 9 9 8 11 7 9 4 8 4 20 31 29 23 17 16 13 10 14 16 18 19 21 25 23 25 22 21 22 21 22 21 21 20 21 19 14 12
22 22 19 20 14 12 11 11 15 18 16 9 9 8 5 6 9 22 28 26 16 14 11 11 13 14 17 14 16 21 23 23 24 25 19 22 26 25 27 23 23 20 21 21 18
22 21 19 18 13 10 10 10 14 12 15 13 13 5 4 11 13 23 28 25 18 15 14 11 10 12 13 18 19 21 23 24 24 23 22 22 25 23 31 21 20 21 24 23 22
21 20 16 15 15 6 13 8 2 4 4 6 2 3 17 12 17 23 28 21 19 13 14 11 11 9 10 15 12 16 22 22 24 23 24 22 29 31 30 25 25 22 19 19 23
20 19 12 14 13 8 5 14 16 9 7 4 4 7 6 9 14 28 32 18 19 16 8 8 9 11 14 12 19 21 23 23 23 24 25 22 31 27 23 18 17 24 23 20 23
21 20 13 17 10 11 6 7 5 12 13 12 3 5 5 13 20 26 30 19 18 11 4 5 7 9 8 11 15 18 20 24 24 17 12 16 26 20 18 13 11 15 15 18 19
21 20 15 11 13 2 17 18 17 12 5 2 18 6 17 15 14 27 31 12 15 12 9 4 7 10 2 11 14 20 24 26 25 21 24 21 23 20 20 23 22 16 16 14 16
20 19 17 4 17 6 14 7 7 3 21 13 9 9 12 15 9 26 34 9 13 3 8 3 5 7 12 12 15 17 20 26 26 24 24 26 27 26 25 26 23 21 21 18 20
21 19 18 2 13 9 1 3 5 4 9 11 8 8 13 11 13 23 33 11 10 10 14 10 9 10 10 13 11 16 21 24 24 23 21 23 25 24 24 27 26 26 25 21 21
21 20 17 3 6 9 13 6 2 3 3 7 10 12 16 10 12 20 26 12 12 11 14 5 8 9 12 15 11 16 21 20 22 24 22 23 27 28 28 29 28 26 25 24 25
20 21 15 3 0 4 6 6 0 2 6 8 12 8 14 7 1 17 21 8 10 12 13 3 10 11 13 14 14 19 22 21 23 20 19 20 18 21 19 18 20 23 25 26 26
19 21 13 17 4 6 5 3 1 4 4 8 7 7 14 14 10 19 15 13 8 15 9 12 13 11 13 12 19 24 21 22 27 26 21 24 13 17 19 21 20 21 21 20 20
19 23 18 10 10 6 3 1 3 4 5 4 5 14 16 17 8 17 12 18 2 18 11 19 3 3 9 17 17 18 25 28 29 22 17 25 19 17 10 27 27 29 31 33 33
8 17 19 13 8 10 2 4 2 5 6 10 10 16 12 17 11 19 15 15 14 12 17 16 3 4 5 25 15 20 18 12 12 10 9 8 6 17 24 25 26 26 28 29 29
1 10 19 18 10 4 4 4 8 3 7 12 12 11 7 16 12 18 15 11 13 16 15 12 13 15 22 18 12 23 10 6 9 13 17 14 5 8 26 25 26 27 27 28 29
4 4 19 21 12 5 6 6 6 7 9 11 13 7 8 13 11 13 14 9 12 17 13 14 14 31 28 7 11 11 11 15 16 22 17 7 14 8 31 31 30 31 30 32 31
2 2 25 20 14 8 6 5 4 7 9 9 8 6 13 16 12 15 10 6 10 16 19 15 28 24 21 14 7 13 12 9 6 6 7 7 9 13 29 29 30 31 31 31 29
3 1 24 18 11 6 5 6 6 7 9 9 7 10 12 15 16 13 7 9 17 21 20 24 16 20 21 14 12 11 8 8 10 8 5 6 8 15 22 24 27 25 27 26 24
7 4 24 17 6 5 7 5 3 7 5 3 4 9 9 17 11 7 11 9 17 22 25 17 13 18 23 21 13 16 7 10 7 11 11 7 6 20 22 21 24 25 25 24 24
3 4 17 14 4 6 9 7 6 7 7 7 5 7 10 12 8 10 11 15 21 19 21 14 8 13 14 10 15 16 14 11 12 9 8 6 7 20 23 23 25 24 23 25 27
1 3 5 9 8 6 5 8 5 5 4 7 3 8 13 13 8 11 17 16 17 12 12 17 14 16 11 16 17 12 13 19 17 8 8 14 19 25 26 22 26 25 24 22 24
4 3 3 3 5 7 9 4 7 6 3 6 2 10 12 11 13 12 19 19 15 10 15 14 16 21 20 20 5 10 18 18 20 17 12 17 16 21 22 21 22 18 24 23 24
3 3 5 6 2 7 3 6 7 9 5 6 9 11 11 10 12 16 17 17 13 14 16 17 16 17 20 16 8 17 18 17 19 17 12 15 16 21 21 16 22 23 25 25 24
7 3 1 2 6 3 6 5 7 8 3 5 8 12 9 13 13 12 11 8 10 14 17 12 12 14 13 6 8 20 18 11 18 16 13 15 16 19 23 19 21 21 24 24 24
Wind_Direction
18 20 20 11 2 351 345 356 6 59 89 140 144 127 91 49 70 50 34 348 341 341 329 271 242 244 234 238 236 244 259 255 258 264 274 274 256 260 271 281 283 271 241 294 100
22 23 15 9 358 350 3 12 28 48 86 168 194 207 315 352 353 40 357 354 347 341 326 319 303 256 246 240 231 235 246 250 267 286 299 303 298 291 285 274 262 254 251 173 195
20 15 11 8 1 14 25 29 35 41 49 101 222 225 261 315 261 18 349 351 341 334 310 295 281 267 266 256 241 235 246 270 283 289 296 279 281 282 272 256 259 269 260 244 189
17 12 12 11 12 33 39 38 54 81 76 67 89 177 256 267 21 354 343 342 335 323 308 283 265 263 263 263 250 251 257 265 279 283 284 274 278 276 275 271 275 281 284 281 275
17 16 21 18 27 42 44 61 84 82 72 82 90 122 253 59 26 348 343 340 336 331 307 300 287 282 271 271 272 263 271 270 271 276 264 274 269 272 269 267 268 265 266 267 262
17 19 21 24 30 49 58 99 108 72 73 75 70 12 32 57 341 348 346 340 339 330 322 284 276 300 301 282 280 284 284 286 283 275 265 260 267 271 264 254 252 251 254 254 249
17 19 25 30 30 67 78 121 137 9 26 101 50 358 59 32 358 347 349 337 334 320 310 296 289 264 291 290 291 295 281 274 267 264 260 261 263 253 265 260 253 249 243 247 244
16 16 21 27 37 31 151 95 78 66 70 72 20 60 76 10 349 358 350 345 344 324 308 293 270 268 265 277 283 278 274 272 270 260 245 237 255 258 263 250 253 233 239 249 251
13 13 19 22 28 43 134 150 17 83 91 39 291 124 41 347 360 350 350 338 331 322 310 286 247 261 254 264 291 275 265 274 276 279 228 241 259 269 282 295 264 262 256 242 245
11 6 8 13 12 38 113 116 73 46 275 225 22 141 29 347 348 354 353 337 320 335 220 268 230 249 266 341 307 318 305 301 295 299 313 294 270 272 281 279 267 266 261 257 254
10 5 360 319 6 16 193 268 218 111 54 66 53 56 356 346 344 6 353 316 331 341 338 327 268 8 329 314 303 300 289 285 285 287 280 273 276 274 275 272 274 266 256 253 264
13 7 2 18 25 61 223 294 26 68 81 65 44 32 6 344 355 11 357 2 348 2 335 222 50 3 314 304 302 297 304 296 303 293 284 276 273 274 262 259 259 261 266 256 257
14 10 7 43 37 50 70 42 29 349 233 66 46 23 1 336 27 10 1 335 352 344 347 28 19 326 318 319 334 309 303 301 309 316 301 287 275 266 262 259 263 264 260 259 259
13 10 15 15 126 18 60 12 100 339 218 26 14 31 355 332 327 15 1 347 7 347 333 66 346 330 321 328 354 310 317 299 292 286 277 282 288 286 287 274 243 235 237 246 252
22 16 27 55 3 45 345 349 227 252 266 9 12 322 341 27 326 11 10 351 358 344 309 357 324 329 333 352 321 302 312 293 279 273 270 266 252 262 250 252 258 258 259 260 250
24 28 30 24 51 15 348 317 254 242 39 19 358 352 349 7 2 352 349 26 266 316 256 331 242 311 341 339 323 309 304 295 263 248 244 251 247 252 359 15 3 359 0 357 355
347 22 26 23 346 333 326 234 239 50 350 353 341 344 340 355 354 355 351 31 22 346 347 319 341 357 359 333 326 337 330 320 294 202 227 355 270 35 20 17 9 359 351 348 354
343 34 19 14 346 305 268 219 62 20 10 345 328 323 10 8 343 344 343 9 34 3 322 341 317 7 334 313 301 301 323 317 308 316 307 288 339 38 19 9 12 2 355 351 349
77 23 11 357 354 320 268 52 25 9 350 333 319 347 1 2 337 341 342 26 14 9 357 313 302 319 300 300 309 325 304 312 268 269 271 323 42 53 10 7 4 6 2 356 350
14 274 16 348 336 283 50 86 82 18 336 335 353 353 334 347 343 337 348 62 349 5 349 312 301 304 293 299 282 283 302 324 313 285 307 79 57 2 1 2 360 3 3 357 345
348 237 359 358 343 49 76 81 77 39 4 356 349 325 341 348 327 329 327 344 10 342 330 315 298 314 309 302 314 319 328 323 294 253 291 323 65 12 6 7 1 352 358 356 344
9 51 352 356 53 40 55 40 333 15 16 19 351 332 351 330 324 320 335 334 357 338 323 323 308 295 301 294 267 347 344 341 317 303 313 290 82 21 13 4 3 355 352 359 342
63 48 13 33 80 75 99 91 49 19 31 10 16 358 332 329 320 333 319 357 350 346 348 328 307 309 311 337 352 325 21 6 328 277 16 20 34 8 8 1 2 354 352 357 345
26 41 25 27 49 93 96 47 60 48 59 344 322 339 340 333 328 303 344 335 335 12 335 337 317 329 328 317 319 358 37 40 32 21 335 20 15 5 360 352 359 355 349 355 346
61 40 344 55 28 64 63 39 45 19 10 18 311 -0 340 330 336 357 334 331 344 357 351 347 323 319 318 305 1 49 44 46 40 22 20 20 18 3 355 343 360 350 350 356 349
82 39 85 84 54 62 56 36 23 2 355 9 342 338 329 353 343 325 330 348 1 339 334 344 322 315 298 309 131 50 32 58 52 34 24 20 22 355 353 354 3 358 355 354 346
42 60 14 216 48 55 30 39 18 348 124 351 338 330 347 349 324 307 296 343 327 343 341 336 327 313 298 21 66 35 14 35 67 51 23 23 5 358 356 14 5 354 354 351 344
Height
816 812 809 806 803 799 795 792 790 789 789 790 789 788 786 783 781 784 783 794 787 779 773 768 765 762 761 755 751 746 758 745 732 722 710 695 710 701 705 711 705 699 701 701 714
817 813 810 807 802 798 794 793 791 790 790 790 790 788 787 785 781 783 792 786 782 778 775 768 759 757 754 749 744 751 746 736 718 710 712 706 706 707 713 712 709 703 697 701 711
818 815 811 807 802 798 795 794 792 791 790 790 790 789 789 787 779 788 790 786 781 776 774 769 764 758 754 743 741 740 742 727 717 709 710 716 716 709 713 717 710 706 696 696 703
819 815 811 808 803 800 798 796 794 793 792 791 790 790 791 789 786 794 792 785 780 775 771 765 758 755 751 745 733 742 730 726 721 716 716 717 711 712 711 708 702 700 696 694 696
820 816 813 809 805 802 800 798 797 797 795 794 793 792 791 786 797 796 791 785 778 774 769 763 759 753 750 740 733 733 727 721 719 717 717 716 714 712 708 705 701 700 701 700 698
820 817 813 810 807 805 802 801 800 799 798 797 795 793 790 798 801 796 790 783 777 773 768 764 758 752 754 747 742 731 725 721 717 714 710 716 711 711 692 696 696 697 697 696 695
822 819 815 812 809 806 805 803 802 801 800 800 797 796 797 806 802 796 790 783 778 773 767 764 761 759 749 746 734 736 737 726 718 712 711 709 710 703 689 690 688 687 689 687 688
823 819 816 812 810 807 806 805 804 802 801 800 798 796 800 804 801 795 788 781 777 771 767 764 762 759 756 747 743 742 735 732 707 700 695 702 702 685 675 673 673 675 679 679 678
824 820 816 813 811 809 806 806 806 804 800 799 798 794 802 802 800 796 790 782 776 768 767 765 762 753 745 746 738 723 725 715 704 686 697 700 698 687 677 674 680 674 671 672 670
824 820 817 815 812 811 809 807 805 804 801 800 800 795 801 805 802 797 791 781 773 763 762 757 750 744 735 750 755 752 746 731 722 704 699 700 697 690 688 684 680 675 672 668 665
825 821 817 814 812 808 809 807 803 802 807 809 812 812 811 808 801 798 791 780 770 760 762 755 747 767 773 770 764 760 755 745 729 719 719 713 707 699 693 689 681 675 671 671 668
825 821 817 814 813 810 809 804 810 809 814 814 813 812 812 808 803 801 795 784 777 771 762 749 761 775 774 766 762 759 757 746 732 722 717 710 703 695 690 684 682 679 672 668 667
826 821 817 815 814 814 813 815 815 814 801 814 812 814 810 806 804 804 801 792 783 775 774 769 778 778 773 764 762 766 762 748 744 732 726 722 713 702 688 681 676 672 667 666 665
828 823 818 815 816 815 815 817 817 817 797 815 812 814 810 806 802 806 804 801 785 786 780 770 777 778 770 765 773 771 759 753 750 742 730 709 705 683 670 662 656 655 659 660 661
829 824 820 815 818 816 821 819 819 817 800 817 816 819 810 814 813 806 805 798 796 793 787 777 779 781 773 781 782 769 759 750 743 730 722 711 710 686 671 670 663 656 652 649 648
831 827 823 821 821 823 821 820 820 805 817 817 820 818 813 812 809 807 802 801 803 790 785 778 775 780 781 783 777 762 753 731 709 705 711 692 691 678 683 706 693 681 672 669 664
833 831 828 826 826 824 823 819 804 824 817 825 826 821 818 818 811 810 804 801 812 802 796 778 767 778 784 784 777 771 751 729 692 682 685 683 683 739 719 720 720 714 706 698 690
832 832 832 830 826 824 823 807 832 831 832 831 829 821 820 822 821 815 806 808 816 819 808 803 784 782 784 792 792 775 763 764 758 706 703 698 699 758 740 737 733 729 724 717 706
832 832 832 829 826 825 816 836 839 842 846 840 823 825 822 824 831 821 812 820 824 829 835 821 798 798 788 780 778 772 765 762 767 735 708 688 724 708 741 745 738 737 733 727 724
833 832 834 830 827 824 820 843 849 854 851 844 838 836 832 831 835 828 820 830 834 836 840 830 818 797 781 775 770 780 764 768 762 745 720 734 766 781 767 764 757 752 745 746 740
834 824 839 832 826 822 842 848 854 858 857 856 850 845 843 846 840 835 832 828 835 840 840 828 812 799 789 779 785 777 775 773 769 763 743 727 780 804 795 789 781 774 763 762 758
833 840 845 836 839 839 853 852 866 859 858 857 855 855 855 852 843 839 839 837 842 843 838 829 830 819 804 778 774 792 782 784 785 765 760 754 797 799 800 797 794 786 776 767 763
840 844 849 839 861 857 856 861 865 863 864 862 859 863 858 853 851 840 840 840 845 846 849 842 832 826 794 779 797 790 791 790 784 780 783 765 792 802 802 803 798 791 782 771 762
843 864 856 851 850 849 852 860 862 870 867 867 866 859 858 854 847 845 845 848 847 851 854 844 835 832 835 816 799 807 813 797 804 809 803 807 811 813 809 809 805 796 788 778 768
853 863 865 869 865 859 860 864 864 869 868 866 860 864 862 854 853 850 855 849 845 850 850 846 850 838 823 811 813 820 818 813 823 828 819 828 823 827 823 816 815 804 793 780 771
867 864 863 866 867 862 868 870 871 873 873 869 871 868 863 863 871 868 863 856 852 852 850 847 848 836 828 811 823 816 819 828 829 836 834 827 831 834 822 818 814 807 796 786 777
873 874 867 875 863 865 874 876 876 876 877 875 876 872 863 874 874 870 863 861 861 856 852 848 844 832 828 828 828 830 835 838 829 840 840 836 843 834 823 820 820 810 800 790 783